Weather History for Deadhorse, AK

Change the Weather History Date:

Sunday, March 24, 2013

  Actual Average Record
Temperature  
Mean Temperature -16 °F -  
Max Temperature -11 °F -5 °F 17 °F (2002)
Min Temperature -20 °F -19 °F -40 °F (2007)
Degree Days  
Heating Degree Days 80    
Moisture  
Dew Point -22 °F    
Average Humidity 75    
Maximum Humidity 84    
Minimum Humidity 70    
Precipitation  
Precipitation 0.00 in - - ()
Sea Level Pressure  
Sea Level Pressure 30.02 in    
Wind  
Wind Speed 21 mph (SW)    
Max Wind Speed 25 mph    
Max Gust Speed 30 mph    
Visibility 4 miles    
Events Snow    
Averages and records for this station are not official NWS values.
T = Trace of Precipitation, MM = Missing Value Source: NWS Daily Summary

Daily Weather History Graph

Daily Weather History Graph

Search for Another Location

Airport:

Trip Planner

Search our weather history database for the weather conditions in past years. The results will help you decide how hot, cold, wet, or windy it might be!

Date:

Astronomy

Mar. 24, 2013 Rise Set
Actual Time 7:31 AM AKDT 8:30 PM AKDT
Civil Twilight 6:28 AM AKDT 9:34 PM AKDT
Nautical Twilight 5:04 AM AKDT 10:59 PM AKDT
Astronomical Twilight 2:34 AM AKDT 1:27 AM AKDT
Moon 5:08 PM AKDT (3/24) 7:01 AM AKDT (3/24)
Length of Visible Light 15h 05m
Length of Day
12h 58m
Waxing Gibbous, 92% of the Moon is Illuminated
Mar 24
Waxing Gibbous
Mar 27
Full
Apr 2
Last Quarter
Apr 10
New
Apr 18
First Quarter

Hourly Weather History & Observations

Time (AKDT) Temp. Windchill Dew Point Humidity Pressure Visibility Wind Dir Wind Speed Gust Speed Precip Events Conditions
12:14 AM -18.4 °F -48.8 °F -23.8 °F 76% 29.91 in 0.8 mi WSW 25.3 mph - 0.00 in Snow Light Snow
12:53 AM -18.9 °F -49.6 °F -25.1 °F 74% 29.93 in 0.8 mi SW 25.3 mph - 0.00 in Snow Light Snow
1:34 AM -20.2 °F -51.2 °F -25.6 °F 76% 29.92 in 1.0 mi SW 25.3 mph - 0.00 in Snow Light Snow
1:53 AM -20.9 °F -51.1 °F -26.0 °F 77% 29.94 in 1.0 mi SW 23.0 mph - 0.00 in Snow Light Snow
2:53 AM -20.9 °F -51.6 °F -26.0 °F 77% 29.94 in 2.0 mi SW 24.2 mph - 0.00 in Snow Blowing Snow
3:53 AM -18.9 °F -48.4 °F -25.1 °F 74% 29.95 in 1.5 mi SW 23.0 mph - N/A Snow Blowing Snow
4:53 AM -18.9 °F -49.0 °F -24.0 °F 78% 29.96 in 1.5 mi SW 24.2 mph - N/A Snow Blowing Snow
5:53 AM -18.9 °F -49.6 °F -24.0 °F 78% 29.96 in 1.5 mi SW 25.3 mph - 0.00 in Snow Light Snow
6:20 AM -18.4 °F -48.3 °F -23.8 °F 76% 29.95 in 1.8 mi SW 24.2 mph - 0.00 in Snow Light Snow
6:53 AM -18.0 °F -48.3 °F -24.0 °F 74% 29.97 in 1.8 mi SW 25.3 mph - 0.00 in Snow Light Snow
7:51 AM -16.6 °F -46.4 °F -23.8 °F 70% 29.97 in 0.8 mi SW 25.3 mph - 0.00 in Snow Light Snow
7:53 AM -17.0 °F -46.9 °F -23.1 °F 74% 29.98 in 0.8 mi SW 25.3 mph - 0.00 in Snow Light Snow
8:53 AM -17.0 °F -46.4 °F -22.0 °F 78% 29.99 in 1.0 mi SW 24.2 mph 29.9 mph 0.00 in Snow Light Snow
9:53 AM -16.1 °F -44.0 °F -20.9 °F 79% 30.01 in 1.0 mi SW 21.9 mph - 0.00 in Snow Blowing Snow
10:29 AM -16.6 °F -44.8 °F -20.2 °F 84% 30.00 in 2.5 mi SW 21.9 mph - N/A Snow Blowing Snow
10:53 AM -16.1 °F -41.4 °F -22.0 °F 74% 30.03 in 3.0 mi WSW 17.3 mph - N/A Snow Blowing Snow
11:53 AM -14.1 °F -38.9 °F -20.0 °F 75% 30.04 in 3.0 mi SW 17.3 mph - N/A Snow Blowing Snow
12:53 PM -14.1 °F -42.0 °F -20.9 °F 71% 30.04 in 3.0 mi SW 23.0 mph - N/A Snow Blowing Snow
1:53 PM -13.0 °F -39.4 °F -18.9 °F 75% 30.06 in 5.0 mi SW 20.7 mph - N/A Snow Blowing Snow
2:53 PM -11.9 °F -38.6 °F -18.9 °F 71% 30.06 in 7.0 mi SW 21.9 mph - N/A   Clear
3:53 PM -11.9 °F -35.4 °F -18.0 °F 74% 30.06 in 10.0 mi WSW 16.1 mph - N/A   Clear
4:53 PM -11.9 °F -32.0 °F -18.0 °F 74% 30.07 in 10.0 mi SW 11.5 mph - N/A   Clear
5:53 PM -11.9 °F -33.0 °F -18.9 °F 71% 30.07 in 10.0 mi SW 12.7 mph - N/A   Clear
6:53 PM -13.0 °F -30.0 °F -20.0 °F 71% 30.08 in 10.0 mi WSW 8.1 mph - N/A   Clear
7:53 PM -15.0 °F -31.0 °F -20.9 °F 75% 30.10 in 10.0 mi SSW 6.9 mph - N/A   Clear
8:53 PM -18.0 °F -36.1 °F -24.0 °F 74% 30.11 in 10.0 mi SW 8.1 mph - N/A   Clear
9:53 PM -18.0 °F -34.7 °F -24.0 °F 74% 30.11 in 10.0 mi SW 6.9 mph - N/A   Scattered Clouds
10:53 PM -18.9 °F -34.0 °F -25.1 °F 74% 30.13 in 10.0 mi SSW 5.8 mph - N/A   Scattered Clouds
11:53 PM -20.0 °F -30.7 °F -25.1 °F 78% 30.13 in 10.0 mi South 3.5 mph - N/A   Scattered Clouds